星链-32098 (STARLINK-32098 )

导读

STARLINK-32098是美国太空探索技术公司(SpaceX)于北京时间2024年5月8日发射的星链(Starlink)卫星,属于星链第二代星座部署计划中的组网卫星。星链项目旨在构建全球卫星互联网,为偏远地区、航空航海等场景提供高速宽带服务。该卫星运行在近地轨道,可通过星间链路实现数据传输,进一步扩大星链星座的全球覆盖范围,助力星链互联网服务能力提升。截至2026年3月,STARLINK-32098已在轨运行近2年,为全球星链用户提供通信支持。

基本信息
目录编号:
59704
目录名称:
STARLINK-32098
国际标识:
2024-086Y
轨道中心:
EARTH
卫星名称:
星链-32098
卫星全名:
星链-32098 (STARLINK-32098 )
卫星状态:
在轨 (已飞行849 天)
发射日期:
2024-05-08 UTC
国别 :
美国 (US)
星等 :
--
轨道信息
数据来源 国际轨道数据 AOE轨道数据
星历时间 2026-09-04T02:17:41+0800
9小时前
查看轨道信息
2026-09-03T22:00:00+0800
13小时前
查看轨道信息
半长轴 6861.157km 6861.172km
偏心率 0.0001482 0.0001382
轨道倾角 43.003° 43.003°
近地点辐角 271.048° 253.210°
升交点赤经 134.441° 135.453°
平近点角 89.020° 201.569°
近地点 482.003km 482.086km
远地点 484.037km 483.984km
周期 94.266分钟 94.266分钟
每日圈数 15.275899 15.27585
详细信息
固有亮度:
5
最大亮度:
1.5
卫星平台:
Starlink v2.0 mini
覆盖范围:
全球
运营商:
太空探索技术公司
运营商所在国:
美国
制造商(研发单位):
太空探索技术公司
制造商所在国:
美国
使用方式:
暂无
卫星简介
星链(Starlink)计划是由太空探索技术公司(SpaceX)提出的一个巨型低轨卫星互联网星座项目,计划在2019年至2024年间在太空搭建由约1.2万颗卫星组成的“星链”网络,其中1584颗将部署在地球上空550千米处的近地轨道,并从2020年开始工作。该卫星仍在工作。
2D轨道图
3D轨道图
轨道高度分析图
轨道倾角分析图
轨道综合分析图
查看轨道综合分析图
交会数据列表
事件ID 空间交会对象 最接近时刻(TCA) 交会距离 交会风险概率(CRP) 交会风险指数(CRI) 操作
CDM_260905-124805-970406-268421
IRIS-F2 (62684)
2026-09-05T
12:48:49+0000
0.205 km
中距离
7.673917E-4 高风险 0.93
CDM_260904-180605-970406-658021
2026-09-04T
18:06:10+0000
0.306 km
远距离
3.354079E-4 高风险 0.86
CDM_260904-102405-970406-384921
2026-09-04T
10:24:14+0000
0.341 km
远距离
1.37332E-4 高风险 0.78
CDM_260904-195805-970406-213921
2026-09-04T
19:58:16+0000
0.593 km
远距离
9.063797E-5 中风险 0.74
CDM_260904-080305-970406-384921
2026-09-04T
08:03:00+0000
0.615 km
远距离
2.819141E-5 中风险 0.64
CDM_260905-072605-970406-658021
2026-09-05T
07:26:28+0000
1.119 km
极远距离
9.981073E-6 低风险 0.55
CDM_260905-090005-970406-658021
2026-09-05T
09:00:37+0000
1.174 km
极远距离
8.445444E-6 低风险 0.54
CDM_260904-213205-970406-213921
2026-09-04T
21:32:25+0000
1.302 km
极远距离
6.993244E-6 低风险 0.52
CDM_260904-192504-361305-970423
ICESAT-2 (43613)
2026-09-04T
19:25:42+0000
1.613 km
极远距离
5.137876E-6 低风险 0.49
CDM_260904-163205-970406-658021
2026-09-04T
16:32:01+0000
1.604 km
极远距离
3.042313E-6 低风险 0.45